• In Italy
  • List of Countries
  • For 7 days
  • Water Temperature
  • Satellite Maps
  • Weather Map
  • Weather Widgets
  • user-avatar
    Login

    Hourly Weather Canberra

    Today, 20 September, Wednesday

    Time Temperature Precipitation Wind Pressure Humidity
    00:00 +4°C° 0 mm 1 mps 711 mmHg 91%
    01:00 +3°C° 0 mm 1 mps 711 mmHg 91%
    02:00 +3°C° 0 mm 1 mps 711 mmHg 91%
    03:00 +3°C° 0 mm 1 mps 711 mmHg 91%
    04:00 +1°C° 0 mm 0 mps 711 mmHg 91%
    05:00 +2°C° 0 mm 0 mps 711 mmHg 87%
    06:00 +3°C° 0 mm 0 mps 711 mmHg 83%
    07:00 +4°C° 0 mm 0 mps 712 mmHg 78%
    08:00 +8°C° 0 mm 1 mps 712 mmHg 67%
    09:00 +11°C° 0 mm 1 mps 712 mmHg 56%
    10:00 +14°C° 0 mm 1 mps 712 mmHg 43%
    11:00 +16°C° 0 mm 1 mps 712 mmHg 41%
    12:00 +17°C° 0 mm 2 mps 711 mmHg 38%
    13:00 +19°C° 0 mm 2 mps 711 mmHg 35%
    14:00 +18°C° 0 mm 2 mps 711 mmHg 39%
    15:00 +18°C° 0 mm 3 mps 710 mmHg 43%
    16:00 +17°C° 0 mm 3 mps 710 mmHg 46%
    17:00 +14°C° 0 mm 3 mps 710 mmHg 59%
    18:00 +12°C° 0 mm 2 mps 710 mmHg 71%
    19:00 +8°C° 0 mm 2 mps 710 mmHg 83%
    20:00 +8°C° 0 mm 1 mps 710 mmHg 86%
    21:00 +8°C° 0 mm 1 mps 710 mmHg 88%
    22:00 +7°C° 0 mm 1 mps 710 mmHg 91%
    23:00 +7°C° 0 mm 1 mps 710 mmHg 90%

    Tomorrow, 21 September, Thursday

    Time Temperature Precipitation Wind Pressure Humidity
    00:00 +6°C° 0 mm 1 mps 710 mmHg 89%
    01:00 +6°C° 0 mm 1 mps 709 mmHg 88%
    02:00 +6°C° 0 mm 1 mps 709 mmHg 87%
    03:00 +6°C° 0 mm 1 mps 709 mmHg 85%
    04:00 +6°C° 0 mm 1 mps 709 mmHg 83%
    05:00 +7°C° 0 mm 1 mps 709 mmHg 78%
    06:00 +8°C° 0 mm 1 mps 709 mmHg 73%
    07:00 +8°C° 0 mm 1 mps 709 mmHg 68%
    08:00 +12°C° 0 mm 2 mps 709 mmHg 57%
    09:00 +15°C° 0 mm 2 mps 709 mmHg 47%
    10:00 +19°C° 0 mm 3 mps 710 mmHg 36%
    11:00 +20°C° 0 mm 3 mps 709 mmHg 36%
    12:00 +21°C° 0 mm 4 mps 709 mmHg 35%
    13:00 +22°C° 0 mm 4 mps 708 mmHg 35%
    14:00 +22°C° 0 mm 4 mps 708 mmHg 38%
    15:00 +21°C° 0 mm 4 mps 707 mmHg 42%
    16:00 +20°C° 0 mm 4 mps 707 mmHg 46%
    17:00 +18°C° 0 mm 3 mps 707 mmHg 55%
    18:00 +16°C° 0 mm 2 mps 707 mmHg 65%
    19:00 +13°C° 0 mm 2 mps 707 mmHg 74%
    20:00 +13°C° 0 mm 2 mps 707 mmHg 75%
    21:00 +12°C° 0 mm 1 mps 707 mmHg 75%
    22:00 +12°C° 0 mm 1 mps 707 mmHg 75%
    23:00 +11°C° 0 mm 1 mps 707 mmHg 73%

    Day after tomorrow, 22 September, Friday

    Time Temperature Precipitation Wind Pressure Humidity
    00:00 +10°C° 0 mm 2 mps 707 mmHg 72%
    01:00 +10°C° 0 mm 2 mps 707 mmHg 70%
    02:00 +10°C° 0 mm 2 mps 707 mmHg 67%
    03:00 +9°C° 0 mm 2 mps 706 mmHg 64%
    04:00 +9°C° 0 mm 2 mps 706 mmHg 62%
    05:00 +10°C° 0 mm 2 mps 707 mmHg 60%
    06:00 +10°C° 0 mm 2 mps 707 mmHg 58%
    07:00 +11°C° 0 mm 1 mps 707 mmHg 57%
    08:00 +14°C° 0 mm 2 mps 707 mmHg 49%
    09:00 +17°C° 0 mm 3 mps 707 mmHg 42%
    10:00 +20°C° 0 mm 4 mps 708 mmHg 35%
    11:00 +21°C° 0 mm 4 mps 707 mmHg 33%
    12:00 +22°C° 0 mm 4 mps 707 mmHg 32%
    13:00 +25°C° 0 mm 5 mps 706 mmHg 31%
    14:00 +23°C° 0 mm 4 mps 706 mmHg 34%
    15:00 +23°C° 0 mm 4 mps 706 mmHg 38%
    16:00 +22°C° 0 mm 3 mps 705 mmHg 41%
    17:00 +20°C° 0 mm 3 mps 705 mmHg 49%
    18:00 +17°C° 0 mm 2 mps 705 mmHg 57%
    19:00 +15°C° 0 mm 1 mps 705 mmHg 65%
    20:00 +14°C° 0 mm 1 mps 705 mmHg 64%
    21:00 +13°C° 0 mm 1 mps 705 mmHg 62%
    22:00 +13°C° 0 mm 1 mps 705 mmHg 61%
    23:00 +13°C° 0 mm 1 mps 704 mmHg 57%

    23 September, Saturday

    Time Temperature Precipitation Wind Pressure Humidity
    00:00 +13°C° 0 mm 2 mps 704 mmHg 54%
    01:00 +13°C° 0 mm 2 mps 703 mmHg 50%
    02:00 +12°C° 0 mm 2 mps 703 mmHg 49%
    03:00 +12°C° 0 mm 1 mps 703 mmHg 48%
    04:00 +11°C° 0 mm 1 mps 702 mmHg 47%
    05:00 +12°C° 0 mm 1 mps 703 mmHg 48%
    06:00 +12°C° 0 mm 1 mps 703 mmHg 49%
    07:00 +12°C° 0 mm 1 mps 703 mmHg 50%
    08:00 +15°C° 0 mm 2 mps 703 mmHg 45%
    09:00 +18°C° 0 mm 3 mps 703 mmHg 40%
    10:00 +22°C° 0 mm 3 mps 702 mmHg 34%
    11:00 +23°C° 0 mm 4 mps 702 mmHg 33%
    12:00 +25°C° 0 mm 5 mps 701 mmHg 32%
    13:00 +26°C° 0 mm 5 mps 700 mmHg 31%
    14:00 +26°C° 0 mm 5 mps 700 mmHg 33%
    15:00 +26°C° 0 mm 5 mps 699 mmHg 35%
    16:00 +26°C° 0 mm 5 mps 699 mmHg 36%
    17:00 +23°C° 0.1 mm 4 mps 698 mmHg 45%
    18:00 +20°C° 0.1 mm 4 mps 698 mmHg 53%
    19:00 +18°C° 0.1 mm 3 mps 697 mmHg 62%
    20:00 +18°C° 0.1 mm 3 mps 697 mmHg 62%
    21:00 +18°C° 0.1 mm 3 mps 697 mmHg 62%
    22:00 +17°C° 0.1 mm 3 mps 698 mmHg 62%
    23:00 +16°C° 0 mm 3 mps 698 mmHg 68%

    24 September, Sunday

    Time Temperature Precipitation Wind Pressure Humidity
    00:00 +14°C° 0 mm 3 mps 698 mmHg 74%
    01:00 +12°C° 0 mm 3 mps 698 mmHg 80%
    02:00 +12°C° 0 mm 3 mps 698 mmHg 80%
    03:00 +11°C° 0 mm 3 mps 698 mmHg 79%
    04:00 +10°C° 0 mm 4 mps 698 mmHg 79%
    05:00 +10°C° 0 mm 4 mps 699 mmHg 78%
    06:00 +10°C° 0 mm 4 mps 699 mmHg 78%
    07:00 +10°C° 0 mm 4 mps 699 mmHg 78%
    08:00 +11°C° 0 mm 6 mps 699 mmHg 67%
    09:00 +14°C° 0 mm 7 mps 700 mmHg 56%
    10:00 +16°C° 0 mm 8 mps 700 mmHg 44%
    11:00 +16°C° 0 mm 8 mps 700 mmHg 45%
    12:00 +16°C° 0 mm 8 mps 699 mmHg 46%
    13:00 +16°C° 0 mm 8 mps 699 mmHg 46%
    14:00 +16°C° 0 mm 8 mps 699 mmHg 46%
    15:00 +16°C° 0 mm 8 mps 699 mmHg 45%
    16:00 +16°C° 0 mm 7 mps 699 mmHg 44%
    17:00 +15°C° 0 mm 6 mps 699 mmHg 47%
    18:00 +14°C° 0 mm 5 mps 700 mmHg 50%
    19:00 +12°C° 0 mm 4 mps 700 mmHg 53%
    20:00 +12°C° 0 mm 4 mps 700 mmHg 54%
    21:00 +11°C° 0 mm 4 mps 700 mmHg 54%
    22:00 +11°C° 0 mm 4 mps 700 mmHg 54%
    23:00 +10°C° 0 mm 4 mps 701 mmHg 56%

    25 September, Monday

    Time Temperature Precipitation Wind Pressure Humidity
    00:00 +10°C° 0 mm 4 mps 701 mmHg 57%
    01:00 +8°C° 0 mm 4 mps 701 mmHg 58%
    02:00 +8°C° 0 mm 4 mps 701 mmHg 61%
    03:00 +8°C° 0 mm 4 mps 701 mmHg 64%
    04:00 +7°C° 0 mm 4 mps 701 mmHg 67%
    05:00 +7°C° 0 mm 4 mps 702 mmHg 69%
    06:00 +7°C° 0 mm 4 mps 702 mmHg 70%
    07:00 +7°C° 0 mm 5 mps 703 mmHg 71%
    08:00 +9°C° 0 mm 5 mps 703 mmHg 67%
    09:00 +10°C° 0 mm 6 mps 703 mmHg 62%
    10:00 +11°C° 0 mm 6 mps 704 mmHg 58%
    11:00 +11°C° 0 mm 6 mps 703 mmHg 57%
    12:00 +13°C° 0 mm 6 mps 703 mmHg 57%
    13:00 +13°C° 0 mm 6 mps 703 mmHg 56%
    14:00 +13°C° 0 mm 6 mps 703 mmHg 55%
    15:00 +13°C° 0 mm 6 mps 703 mmHg 54%
    16:00 +13°C° 0 mm 6 mps 704 mmHg 53%
    17:00 +12°C° 0 mm 5 mps 704 mmHg 60%
    18:00 +10°C° 0 mm 3 mps 704 mmHg 67%
    19:00 +8°C° 0 mm 2 mps 705 mmHg 74%
    20:00 +8°C° 0 mm 2 mps 705 mmHg 76%
    21:00 +7°C° 0 mm 2 mps 706 mmHg 79%
    22:00 +6°C° 0 mm 2 mps 707 mmHg 81%
    23:00 +6°C° 0 mm 2 mps 707 mmHg 82%
    Show more